Location: Chariton
(41.0140°N, 93.3060°W)
Time: 19:04:32
(UTC-06:00)

Amateur Radio Satellites - All Passes

Search period start: 20 November 2017 18:34
Search period end: 21 November 2017 18:34
Location: Chariton, 41.0140°N, 93.3060°W

Satellite Date Start Highest point End Downlink Frequencies (MHz)
Time Altitude Azimuth
SEEDS 20 Nov 18:37:30 18:41:37 65° 76° (ENE) 18:45:46 437.485
AAUSAT CUBESAT 2 20 Nov 18:46:40 18:50:24 34° 71° (ENE) 18:54:10 437.432
CUBEBUG 2 20 Nov 18:54:43 18:59:20 83° 255° (WSW) 19:03:51 437.445
KAITUO 1B 20 Nov 19:00:37 19:01:25 11° 270° (W) 19:02:13 145.475/437.950
AO-73 20 Nov 19:00:49 19:04:31 29° 70° (ENE) 19:08:11 145.935
Oscar 11 20 Nov 19:17:53 19:21:37 30° 70° (ENE) 19:25:22 .
CUTE-I 20 Nov 19:19:33 19:21:56 13° 271° (W) 19:24:20 437.470
HO-68 20 Nov 19:35:59 19:42:12 31° 264° (W) 19:48:29 435.675
STARS 20 Nov 19:41:30 19:43:15 12° 299° (WNW) 19:45:00 437.465
XW-2A 20 Nov 19:41:36 19:44:39 34° 262° (W) 19:47:43 145.665 - 145.685
RS-15 20 Nov 19:42:29 19:54:49 75° 305° (NW) 20:07:07 29.354- 29.394
NO-84 20 Nov 19:42:39 19:44:32 13° 9° (N) 19:46:28 435.350 FM
STRAND 1 20 Nov 19:42:49 19:47:58 74° 103° (ESE) 19:53:03 437.568
CUTE 1.7 + AOD 2 20 Nov 19:43:42 19:45:56 14° 269° (W) 19:48:11 437.475
ZACube-1 20 Nov 19:44:47 19:49:08 79° 256° (WSW) 19:53:25 437.345
UWE-3 20 Nov 19:53:34 19:57:37 33° 263° (W) 20:01:35 435.000/436.395/437.385
FO-29 20 Nov 20:22:36 20:30:13 50° 98° (E) 20:37:21 435.910
AAUSAT CUBESAT 2 20 Nov 20:23:03 20:25:56 18° 267° (W) 20:28:51 437.432
nSIGHT-1 20 Nov 20:26:21 20:29:08 28° 135° (SE) 20:31:56 .
Max Valier Satellite 20 Nov 20:36:27 20:39:37 28° 71° (ENE) 20:42:46 145.860
EO-88 20 Nov 20:36:38 20:39:18 20° 69° (ENE) 20:41:59 145.990 - 145.960
AO-73 20 Nov 20:37:14 20:40:43 24° 265° (W) 20:44:10 145.935
Oscar 11 20 Nov 20:54:19 20:57:45 23° 266° (W) 21:01:11 .
DELFI C3 20 Nov 20:57:17 21:01:14 80° 75° (ENE) 21:05:14 145.870
ISS 20 Nov 21:08:06 21:11:19 61° 141° (SE) 21:14:34 437.550
SO-50 20 Nov 21:08:38 21:12:09 23° 112° (ESE) 21:15:42 436.795
NO-84 20 Nov 21:19:22 21:23:04 28° 29° (NNE) 21:26:47 435.350 FM
STRAND 1 20 Nov 21:23:47 21:26:30 15° 300° (WNW) 21:29:12 437.568
UNISAT 6 20 Nov 21:24:51 21:28:30 27° 96° (E) 21:32:09 437.425
TIGRISAT 20 Nov 21:29:20 21:33:00 28° 96° (E) 21:36:39 435.000
RS-15 20 Nov 21:59:27 22:09:48 30° 333° (NNW) 22:20:00 29.354- 29.394
ESTCUBE 1 20 Nov 22:01:24 22:04:59 24° 67° (ENE) 22:08:35 437.505/2401.250
nSIGHT-1 20 Nov 22:02:18 22:05:18 34° 332° (NNW) 22:08:17 .
FO-29 20 Nov 22:07:55 22:14:54 37° 296° (WNW) 22:21:35 435.910
EO-88 20 Nov 22:09:47 22:12:47 24° 264° (W) 22:15:48 145.990 - 145.960
Max Valier Satellite 20 Nov 22:10:57 22:13:26 17° 266° (W) 22:15:56 145.860
PRISM 20 Nov 22:32:54 22:37:00 53° 101° (E) 22:41:02 437.425
LO-87 20 Nov 22:34:52 22:38:27 75° 76° (ENE) 22:42:04 145.935 - 145.965
ISS 20 Nov 22:45:21 22:48:02 23° 338° (NNW) 22:50:43 437.550
SO-50 20 Nov 22:48:12 22:52:22 38° 309° (NW) 22:56:36 436.795
NO-84 20 Nov 22:56:29 23:00:40 55° 227° (SW) 23:04:47 435.350 FM
UNISAT 6 20 Nov 23:01:37 23:05:07 25° 292° (WNW) 23:08:35 437.425
TIGRISAT 20 Nov 23:06:08 23:09:35 24° 292° (WNW) 23:13:01 435.000
O/OREOS (USA 219) 20 Nov 23:06:45 23:11:12 52° 64° (ENE) 23:15:36 437.305
AIST 2D 20 Nov 23:08:49 23:12:11 42° 99° (E) 23:15:33 435.315
POLYITAN 1 20 Nov 23:10:28 23:12:47 14° 92° (E) 23:15:05 437.675
PCSat 20 Nov 23:14:15 23:17:45 18° 105° (ESE) 23:21:17 145.827
SPROUT 20 Nov 23:23:55 23:27:58 42° 72° (ENE) 23:32:01 437.525
QB50P2 20 Nov 23:32:38 23:36:19 29° 96° (E) 23:39:57 145.880/145.840
ESTCUBE 1 20 Nov 23:37:37 23:41:37 32° 263° (W) 23:45:39 437.505/2401.250
nSIGHT-1 20 Nov 23:40:31 23:42:15 14° 352° (N) 23:43:58 .
VELOX 1 20 Nov 23:59:09 00:03:32 69° 75° (ENE) 00:07:59 145.980
PRISM 21 Nov 00:09:41 00:11:48 14° 297° (WNW) 00:13:54 437.425
RS-15 21 Nov 00:18:51 00:27:51 23° 9° (N) 00:36:35 29.354- 29.394
DUCHIFAT 1 21 Nov 00:22:32 00:26:43 75° 103° (ESE) 00:30:51 145.980
ISS 21 Nov 00:23:49 00:25:24 13° 358° (N) 00:27:00 437.550
EO-79 21 Nov 00:29:26 00:33:37 68° 284° (WNW) 00:37:45 145.935-145.965
50 SAT 21 Nov 00:29:43 00:32:34 29° 72° (ENE) 00:35:27 437.505
NANOSAT C BR1 21 Nov 00:32:55 00:37:05 71° 285° (WNW) 00:41:14 145.865
AIST 2D 21 Nov 00:43:39 00:44:57 12° 294° (WNW) 00:46:16 435.315
POLYITAN 1 21 Nov 00:44:47 00:48:47 45° 287° (WNW) 00:52:46 437.675
DX 1 21 Nov 00:45:57 00:50:10 50° 72° (ENE) 00:54:25 434.975-435.025
O/OREOS (USA 219) 21 Nov 00:47:35 00:50:07 15° 261° (W) 00:52:37 437.305
Oscar 19 21 Nov 00:51:58 00:55:54 22° 94° (E) 00:59:49 437.125/150
PCSat 21 Nov 00:55:14 01:00:35 63° 301° (WNW) 01:06:00 145.827
SPROUT 21 Nov 01:01:20 01:04:02 16° 268° (W) 01:06:44 437.525
QB50P2 21 Nov 01:08:37 01:11:57 23° 292° (WNW) 01:15:16 145.880/145.840
MOZHAYETS 4 21 Nov 01:08:58 01:09:10 10° 60° (ENE) 01:09:21
Gurwin Techsat 1B 21 Nov 01:14:12 01:18:35 26° 95° (E) 01:22:56 435.225
BUGSAT 1 21 Nov 01:16:33 01:20:35 73° 103° (ESE) 01:24:34 437.445
nSIGHT-1 21 Nov 01:17:33 01:19:29 15° 12° (NNE) 01:21:25 .
UKube-1 21 Nov 01:28:37 01:32:57 88° 264° (W) 01:37:17 .
VELOX 1 21 Nov 01:39:24 01:40:26 11° 270° (W) 01:41:28 145.980
ISS 21 Nov 02:00:21 02:02:50 20° 19° (NNE) 02:05:20 437.550
50 SAT 21 Nov 02:03:15 02:04:45 13° 267° (W) 02:06:15 437.505
BEESAT 3 21 Nov 02:07:18 02:10:32 24° 113° (ESE) 02:13:48 437.485
BEESAT 21 Nov 02:16:36 02:21:05 42° 70° (ENE) 02:25:34 436.000
DX 1 21 Nov 02:24:13 02:26:37 14° 268° (W) 02:29:02 434.975-435.025
ITUPSAT 1 21 Nov 02:25:57 02:30:34 51° 71° (ENE) 02:35:12 437.325
Oscar 19 21 Nov 02:30:30 02:35:24 45° 289° (WNW) 02:40:17 437.125/150
M-CUBED/EXP-1 PRIME 21 Nov 02:31:28 02:35:34 32° 102° (ESE) 02:39:42 437.505
RS-15 21 Nov 02:33:17 02:44:38 45° 42° (NE) 02:55:22 29.354- 29.394
MOZHAYETS 4 21 Nov 02:41:00 02:45:35 87° 259° (W) 02:50:10
PCSat 21 Nov 02:42:54 02:45:06 12° 323° (NW) 02:47:19 145.827
ITAMSAT 1 21 Nov 02:44:48 02:47:30 14° 90° (E) 02:50:10 435.822/435.867
CUBESAT XI-V 21 Nov 02:52:34 02:56:28 28° 68° (ENE) 03:00:23 437.345
nSIGHT-1 21 Nov 02:53:13 02:56:20 47° 32° (NNE) 02:59:25 .
Gurwin Techsat 1B 21 Nov 02:53:41 02:58:37 40° 291° (WNW) 03:03:32 435.225
AO-7 21 Nov 03:08:20 03:16:06 41° 99° (E) 03:23:49 .
BEESAT 2 21 Nov 03:17:31 03:21:15 39° 116° (ESE) 03:25:03 435.950
ISS 21 Nov 03:36:23 03:39:40 84° 213° (SSW) 03:42:55 437.550
BEESAT 3 21 Nov 03:44:22 03:47:56 30° 310° (NW) 03:51:31 437.485
BEESAT 21 Nov 03:55:28 03:59:00 20° 266° (W) 04:02:32 436.000
AO-85 21 Nov 04:05:04 04:08:46 46° 117° (ESE) 04:12:37 145.980
ITUPSAT 1 21 Nov 04:05:35 04:08:39 17° 268° (W) 04:11:44 437.325
M-CUBED/EXP-1 PRIME 21 Nov 04:05:56 04:09:47 28° 296° (WNW) 04:13:43 437.505
ITAMSAT 1 21 Nov 04:22:15 04:27:26 69° 287° (WNW) 04:32:35 435.822/435.867
CUBESAT XI-V 21 Nov 04:29:49 04:33:46 28° 265° (W) 04:37:44 437.345
nSIGHT-1 21 Nov 04:30:00 04:32:19 19° 227° (SW) 04:34:37 .
KKS-1 21 Nov 04:34:17 04:38:45 80° 77° (ENE) 04:43:15 437.445
RS-15 21 Nov 04:46:06 04:57:35 62° 247° (WSW) 05:08:28 29.354- 29.394
BEESAT 2 21 Nov 04:56:00 04:59:07 21° 314° (NW) 05:02:16 435.950
STARS 21 Nov 04:59:04 05:03:25 58° 73° (ENE) 05:07:46 437.465
AO-7 21 Nov 05:01:04 05:08:53 47° 298° (WNW) 05:16:43 .
DOVE 4 21 Nov 05:04:27 05:09:36 61° 100° (E) 05:14:28 437.250
XW-2D 21 Nov 05:11:12 05:12:13 11° 91° (E) 05:13:14 145.860 - 145.880
YUBILEINY 21 Nov 05:21:12 05:29:41 59° 91° (E) 05:38:15 435.215
STRAND 1 21 Nov 05:22:38 05:25:04 14° 60° (ENE) 05:27:31 437.568
XW-2B 21 Nov 05:24:49 05:27:10 16° 93° (E) 05:29:31 145.730 - 145.750
SO-50 21 Nov 05:39:06 05:42:53 24° 45° (NE) 05:46:42 436.795
NUDT-PHONESAT 21 Nov 05:40:18 05:42:40 16° 93° (E) 05:45:02 437.300
AO-85 21 Nov 05:46:40 05:49:25 18° 317° (NW) 05:52:15 145.980
XW-2C 21 Nov 05:49:31 05:52:57 31° 97° (E) 05:56:23 145.795 - 145.815
LilacSat-2 21 Nov 05:51:15 05:54:50 36° 98° (E) 05:58:23 437.200
CUTE-I 21 Nov 05:53:31 05:58:15 31° 96° (E) 06:02:56 437.470
XW-2F 21 Nov 06:00:13 06:03:48 39° 98° (E) 06:07:23 145.980 - 146.000
SEEDS 21 Nov 06:23:33 06:24:48 11° 90° (E) 06:26:02 437.485
KAITUO 1B 21 Nov 06:28:08 06:31:54 71° 101° (ESE) 06:35:40 145.475/437.950
FO-29 21 Nov 06:35:23 06:40:27 23° 58° (ENE) 06:45:53 435.910
STARS 21 Nov 06:38:05 06:40:05 13° 269° (W) 06:42:06 437.465
XW-2D 21 Nov 06:42:58 06:46:39 50° 286° (WNW) 06:50:21 145.860 - 145.880
DOVE 4 21 Nov 06:43:21 06:46:41 17° 298° (WNW) 06:49:55 437.250
CUBEBUG 2 21 Nov 06:46:32 06:49:31 19° 93° (E) 06:52:28 437.445
XW-2B 21 Nov 06:57:58 07:01:26 34° 288° (WNW) 07:04:55 145.730 - 145.750
AO-7 21 Nov 06:58:05 06:59:34 11° 319° (NW) 07:01:03 .
STRAND 1 21 Nov 06:58:24 07:03:33 81° 256° (WSW) 07:08:44 437.568
HO-68 21 Nov 07:02:30 07:09:31 53° 101° (E) 07:16:28 435.675
XW-2A 21 Nov 07:04:13 07:05:39 12° 92° (E) 07:07:06 145.665 - 145.685
RS-15 21 Nov 07:04:38 07:07:12 11° 268° (W) 07:09:44 29.354- 29.394
NUDT-PHONESAT 21 Nov 07:13:16 07:16:34 31° 288° (WNW) 07:19:53 437.300
SO-50 21 Nov 07:19:05 07:23:32 45° 243° (WSW) 07:28:01 436.795
YUBILEINY 21 Nov 07:19:26 07:26:57 31° 291° (WNW) 07:34:33 435.215
XW-2C 21 Nov 07:24:18 07:26:53 18° 293° (WNW) 07:29:28 145.795 - 145.815
CUTE 1.7 + AOD 2 21 Nov 07:26:02 07:30:19 83° 283° (WNW) 07:34:35 437.475
LilacSat-2 21 Nov 07:26:24 07:28:48 16° 293° (WNW) 07:31:11 437.200
CUTE-I 21 Nov 07:33:28 07:38:15 34° 293° (WNW) 07:43:00 437.470
ZACube-1 21 Nov 07:33:51 07:36:47 19° 93° (E) 07:39:43 437.345
XW-2F 21 Nov 07:35:27 07:37:33 14° 294° (WNW) 07:39:38 145.980 - 146.000
UWE-3 21 Nov 07:42:41 07:46:40 45° 99° (E) 07:50:39 435.000/436.395/437.385
SEEDS 21 Nov 07:56:38 08:00:50 61° 286° (WNW) 08:05:01 437.485
PCSat 21 Nov 08:00:54 08:04:32 18° 43° (NE) 08:08:07 145.827
AAUSAT CUBESAT 2 21 Nov 08:03:26 08:07:36 67° 100° (E) 08:11:46 437.432
FO-29 21 Nov 08:18:02 08:24:35 74° 258° (WSW) 08:32:01 435.910
CUBEBUG 2 21 Nov 08:22:29 08:26:14 33° 289° (WNW) 08:29:56 437.445
UNISAT 6 21 Nov 08:23:20 08:27:05 26° 68° (ENE) 08:30:47 437.425
AO-73 21 Nov 08:23:58 08:28:04 62° 100° (E) 08:32:12 145.935
TIGRISAT 21 Nov 08:27:39 08:31:25 26° 68° (ENE) 08:35:08 435.000
XW-2A 21 Nov 08:35:24 08:38:28 33° 287° (WNW) 08:41:31 145.665 - 145.685
DELFI C3 21 Nov 08:37:25 08:37:30 10° 90° (E) 08:37:34 145.870
Oscar 11 21 Nov 08:40:20 08:44:39 63° 101° (E) 08:48:56 .
HO-68 21 Nov 08:50:47 08:56:53 31° 299° (WNW) 09:02:57 435.675
ZACube-1 21 Nov 09:09:24 09:13:09 34° 289° (WNW) 09:16:55 437.345
UWE-3 21 Nov 09:20:23 09:22:45 15° 295° (WNW) 09:25:06 435.000/436.395/437.385
PRISM 21 Nov 09:21:42 09:25:28 36° 71° (ENE) 09:29:17 437.425
EO-88 21 Nov 09:37:53 09:40:57 25° 96° (E) 09:44:00 145.990 - 145.960
Max Valier Satellite 21 Nov 09:39:23 09:42:50 38° 98° (E) 09:46:17 145.860
AAUSAT CUBESAT 2 21 Nov 09:41:15 09:42:28 11° 297° (WNW) 09:43:42 437.432
PCSat 21 Nov 09:43:09 09:48:36 83° 241° (WSW) 09:54:00 145.827
AIST 2D 21 Nov 09:43:46 09:45:50 15° 68° (ENE) 09:47:54 435.315
UNISAT 6 21 Nov 09:59:37 10:03:40 30° 264° (W) 10:07:38 437.425
AO-73 21 Nov 10:02:22 10:03:48 12° 297° (WNW) 10:05:12 145.935
POLYITAN 1 21 Nov 10:03:52 10:05:25 12° 63° (ENE) 10:06:58 437.675
TIGRISAT 21 Nov 10:03:58 10:07:59 30° 263° (W) 10:11:57 435.000
FALCONSAT 3 21 Nov 10:05:51 10:08:46 22° 163° (SSE) 10:11:41 435.103
DELFI C3 21 Nov 10:08:39 10:12:35 59° 286° (WNW) 10:16:30 145.870
FO-29 21 Nov 10:08:59 10:11:02 11° 278° (W) 10:13:08 435.910
Oscar 11 21 Nov 10:18:25 10:20:14 12° 297° (WNW) 10:22:03 .
BEESAT 3 21 Nov 10:23:58 10:26:32 16° 43° (NE) 10:29:04 437.485
QB50P2 21 Nov 10:25:11 10:28:29 22° 67° (ENE) 10:31:47 145.880/145.840
PRISM 21 Nov 10:57:59 11:00:50 18° 267° (W) 11:03:42 437.425
EO-88 21 Nov 11:11:43 11:14:25 20° 291° (WNW) 11:17:08 145.990 - 145.960
DUCHIFAT 1 21 Nov 11:13:38 11:17:43 52° 73° (ENE) 11:21:49 145.980
Max Valier Satellite 21 Nov 11:14:24 11:16:18 14° 294° (WNW) 11:18:13 145.860
AIST 2D 21 Nov 11:15:42 11:18:44 29° 263° (W) 11:21:50 435.315
EO-79 21 Nov 11:21:00 11:25:15 84° 74° (ENE) 11:29:30 145.935-145.965
NANOSAT C BR1 21 Nov 11:24:09 11:28:23 81° 74° (ENE) 11:32:37 145.865
ESTCUBE 1 21 Nov 11:29:24 11:33:51 52° 101° (E) 11:38:15 437.505/2401.250
LO-87 21 Nov 11:34:51 11:38:23 85° 285° (WNW) 11:41:54 145.935 - 145.965
BEESAT 2 21 Nov 11:35:11 11:38:33 25° 48° (NE) 11:41:52 435.950
POLYITAN 1 21 Nov 11:36:25 11:40:39 65° 259° (W) 11:44:51 437.675
FALCONSAT 3 21 Nov 11:44:02 11:47:24 34° 179° (S) 11:50:47 435.103
VELOX 1 21 Nov 11:50:57 11:53:01 13° 91° (E) 11:55:05 145.980
QB50P2 21 Nov 12:00:19 12:04:05 31° 263° (W) 12:07:53 145.880/145.840
BEESAT 3 21 Nov 12:00:32 12:04:22 53° 242° (WSW) 12:08:08 437.485
BUGSAT 1 21 Nov 12:05:30 12:09:32 48° 73° (ENE) 12:13:34 437.445
Oscar 19 21 Nov 12:08:32 12:13:00 32° 67° (ENE) 12:17:30 437.125/150
AO-7 21 Nov 12:20:49 12:24:01 13° 44° (NE) 12:27:14 .
Gurwin Techsat 1B 21 Nov 12:34:55 12:39:51 41° 69° (ENE) 12:44:49 435.225
AO-85 21 Nov 12:35:10 12:39:39 44° 53° (NE) 12:44:27 145.980
SPROUT 21 Nov 12:44:55 12:49:11 85° 104° (ESE) 12:53:25 437.525
DUCHIFAT 1 21 Nov 12:51:43 12:53:40 13° 269° (W) 12:55:37 145.980
ESTCUBE 1 21 Nov 13:07:26 13:10:12 16° 296° (WNW) 13:12:58 437.505/2401.250
BEESAT 2 21 Nov 13:12:42 13:16:17 31° 245° (WSW) 13:19:49 435.950
UKube-1 21 Nov 13:16:57 13:19:28 15° 92° (E) 13:21:59 .
M-CUBED/EXP-1 PRIME 21 Nov 13:17:18 13:20:29 31° 64° (ENE) 13:23:53 437.505
O/OREOS (USA 219) 21 Nov 13:18:31 13:23:04 63° 108° (ESE) 13:27:37 437.305
50 SAT 21 Nov 13:18:55 13:21:38 24° 97° (E) 13:24:19 437.505
FALCONSAT 3 21 Nov 13:23:00 13:26:04 25° 194° (SSW) 13:29:08 435.103
VELOX 1 21 Nov 13:25:25 13:29:48 57° 287° (WNW) 13:34:09 145.980
BUGSAT 1 21 Nov 13:42:56 13:45:07 14° 268° (W) 13:47:19 437.445
Oscar 19 21 Nov 13:47:47 13:52:15 31° 264° (W) 13:56:46 437.125/150
ITAMSAT 1 21 Nov 14:02:01 14:06:06 23° 64° (ENE) 14:10:10 435.822/435.867
AO-7 21 Nov 14:06:59 14:14:58 55° 65° (ENE) 14:22:59 .
DX 1 21 Nov 14:09:56 14:14:21 84° 285° (WNW) 14:18:43 434.975-435.025
NO-84 21 Nov 14:11:42 14:14:25 20° 125° (SE) 14:17:18 435.350 FM
Gurwin Techsat 1B 21 Nov 14:15:34 14:19:54 25° 266° (W) 14:24:16 435.225
AO-85 21 Nov 14:16:02 14:19:53 24° 247° (WSW) 14:23:55 145.980
ITUPSAT 1 21 Nov 14:28:22 14:30:25 13° 90° (E) 14:32:27 437.325
MOZHAYETS 4 21 Nov 14:36:42 14:40:13 21° 94° (E) 14:43:42
50 SAT 21 Nov 14:51:33 14:53:31 15° 292° (WNW) 14:55:28 437.505
UKube-1 21 Nov 14:51:34 14:55:44 47° 288° (WNW) 14:59:51 .
M-CUBED/EXP-1 PRIME 21 Nov 14:52:38 14:55:01 17° 263° (W) 14:57:29 437.505
O/OREOS (USA 219) 21 Nov 15:00:14 15:02:55 15° 307° (NW) 15:05:36 437.305
YUBILEINY 21 Nov 15:31:55 15:39:19 29° 68° (ENE) 15:46:40 435.215
ITAMSAT 1 21 Nov 15:40:15 15:45:14 45° 261° (W) 15:50:16 435.822/435.867
NO-84 21 Nov 15:47:50 15:51:26 47° 324° (NW) 15:55:19 435.350 FM
BEESAT 21 Nov 15:53:58 15:58:43 82° 286° (WNW) 16:03:28 436.000
AO-7 21 Nov 16:00:45 16:08:00 33° 263° (W) 16:15:19 .
ITUPSAT 1 21 Nov 16:03:57 16:08:40 66° 286° (WNW) 16:13:22 437.325
DOVE 4 21 Nov 16:08:42 16:13:38 58° 73° (ENE) 16:18:47 437.250
MOZHAYETS 4 21 Nov 16:13:16 16:17:26 36° 290° (WNW) 16:21:36
CUBESAT XI-V 21 Nov 16:25:20 16:30:02 70° 102° (ESE) 16:34:43 437.345
KKS-1 21 Nov 16:26:39 16:29:15 15° 92° (E) 16:31:48 437.445
XW-2C 21 Nov 16:31:29 16:33:46 16° 67° (ENE) 16:36:04 145.795 - 145.815
LilacSat-2 21 Nov 16:33:39 16:36:13 18° 68° (ENE) 16:38:50 437.200
XW-2F 21 Nov 16:41:23 16:44:02 19° 68° (ENE) 16:46:41 145.980 - 146.000
STARS 21 Nov 16:51:51 16:52:04 10° 90° (E) 16:52:16 437.465
RS-15 21 Nov 16:58:57 17:07:50 24° 100° (E) 17:16:42 29.354- 29.394
KAITUO 1B 21 Nov 17:07:50 17:11:03 29° 71° (ENE) 17:14:18 145.475/437.950
CUTE-I 21 Nov 17:14:56 17:20:06 50° 71° (ENE) 17:25:17 437.470
XW-2D 21 Nov 17:23:23 17:27:05 71° 76° (ENE) 17:30:50 145.860 - 145.880
NO-84 21 Nov 17:27:18 17:29:39 15° 344° (NNW) 17:32:03 435.350 FM
YUBILEINY 21 Nov 17:28:02 17:36:44 64° 268° (W) 17:45:23 435.215
HO-68 21 Nov 17:30:59 17:37:31 39° 64° (ENE) 17:44:04 435.675
XW-2B 21 Nov 17:38:13 17:41:56 77° 258° (WSW) 17:45:42 145.730 - 145.750
CUBEBUG 2 21 Nov 17:44:27 17:47:33 18° 66° (ENE) 17:50:36 437.445
DOVE 4 21 Nov 17:48:28 17:51:41 17° 271° (W) 17:55:00 437.250
NUDT-PHONESAT 21 Nov 17:51:12 17:54:50 77° 258° (WSW) 17:58:30 437.300
KKS-1 21 Nov 18:01:44 18:06:04 50° 288° (WNW) 18:10:20 437.445
XW-2C 21 Nov 18:04:14 18:07:39 34° 263° (W) 18:11:06 145.795 - 145.815
CUBESAT XI-V 21 Nov 18:04:38 18:06:48 13° 298° (WNW) 18:08:57 437.345
LilacSat-2 21 Nov 18:06:58 18:10:16 29° 263° (W) 18:13:37 437.200
XW-2F 21 Nov 18:14:44 18:17:56 27° 264° (W) 18:21:10 145.980 - 146.000
CUTE 1.7 + AOD 2 21 Nov 18:18:02 18:22:11 66° 74° (ENE) 18:26:22 437.475
STARS 21 Nov 18:24:30 18:28:53 71° 285° (WNW) 18:33:13 437.465
